Zurück zum Katalog

EXACTVIEW 9

LostWissenschaftLEO
NORAD 40936·PAYLOAD·🇨🇦 Canada

Gestartet Sep 28, 2015 von Satish Dhawan Space Centre

Loading…

Nächste Überflüge (nächste 24 Stunden)

TLE

VeraltetSource: Space-Track

Epoche: Jan 6, 2024, 01:52 UTC

1 40936U 15052G   24006.07845669  .00002815  00000-0  28083-3 0  9992
2 40936   6.0026  75.6655 0010627 288.6842  71.2132 14.79620840447389

Verfolge EXACTVIEW 9 in Echtzeit mit AllMySat

Download on the App Store